sat.trackr.live / text

‹ back to catalog

2026-106A

NORAD 69097 · 2026-106A

PAYLOAD ACTIVE UNKNOWN

§ Identity

Operator
Country
PRC
Launch date
2026-05-15
Launch site
JSC
Launch vehicle
Mass (kg)
RCS (m²)

External: N2YO · Heavens-Above · Gunter

§ Orbital elements

Epoch: 2026-09-20T04:46:50.892096Z

Period
95.23 min
Inclination
97.5553°
Eccentricity
0.0013648
Mean motion
15.12072165 rev/d
Perigee alt
520.5 km
Apogee alt
539.3 km
Semi-major
6,908.0 km
B*
2.1531e-4
RAAN
343.6336°
Arg perigee
191.6043°
Mean anomaly
168.4875°
Rev number
1,933

§ Raw data

2026-106A1 69097U 26106A   26263.19920014  .00003646  00000+0  21531-3 0  99942 69097  97.5553 343.6336 0013648 191.6043 168.4875 15.12072165 19336

JSON: /api/v1/satellites/69097 · /tle

For live sub-satellite position, see the globe view (requires WebGL).

§ Visibility from observer

Set your observer location to see the next 7 days of passes ≥ 10°. The values pass through the URL so the page stays shareable.

No JS? Fill the form by hand. The geolocation button needs JavaScript.